Location: Ferchesar
(52.6477°N, 12.4298°E)
Time: 17:31:23
(UTC+01:00)

Vanguard 1 - Pass Details

Date: 13 December 2021
Orbit: 652 x 3830 km, 34.2° (Epoch: 22 January)

Event Time Altitude Azimuth Distance (km) Brightness Sun altitude
Rises 19:38:05 0° 190° (S) 5,687 14.0 -32.3°
Reaches altitude 10° 19:42:50 10° 175° (S) 5,191 13.6 -33.0°
Enters shadow 19:49:23 19° 149° (SSE) 5,022 13.3 -34.0°
Maximum altitude 19:53:28 21° 133° (SE) 5,209 - -34.6°
Drops below altitude 10° 20:07:01 10° 95° (E) 6,808 - -36.6°
Sets 20:14:41 0° 83° (E) 7,974 - -37.8°
